Zurück zum Katalog

OPS 6432

AktivNavigationLEO
NORAD 14112·PAYLOAD·🇺🇸 United States

Gestartet Jun 9, 1983 von Vandenberg Space Force Base

Loading…

Nächste Überflüge (nächste 24 Stunden)

TLE

AktuellSource: Space-Track

Epoche: Sep 14, 2026, 08:57 UTC

1 14112U 83056A   26257.37313881  .00001484  00000-0  18828-3 0  9994
2 14112  63.3046 278.7267 0680168 134.8998 230.9380 13.89770932120695

Verfolge OPS 6432 in Echtzeit mit AllMySat

Download on the App Store